Time,TemperatureF,DewpointF,PressureIn,WindDirection,WindDirectionDegrees,WindSpeedMPH,WindSpeedGustMPH,Humidity,HourlyPrecipIn,Conditions,Clouds,dailyrainin,SoftwareType,DateUTC
2013-03-18 00:00:00,51.0,21.4,30.12,WNW,292,3.0,4.0,31,0.00,CLR,,0.00,WeatherDisplay:10.37,2013-03-18 07:00:00,
2013-03-18 00:10:00,49.0,21.1,30.13,WNW,292,2.0,5.0,33,0.00,CLR,,0.00,WeatherDisplay:10.37,2013-03-18 07:10:00,
2013-03-18 00:20:00,47.0,20.7,30.13,NW,308,3.0,5.0,35,0.00,CLR,,0.00,WeatherDisplay:10.37,2013-03-18 07:20:00,
2013-03-18 00:30:00,47.0,20.7,30.14,NNW,337,1.0,5.0,35,0.00,CLR,,0.00,WeatherDisplay:10.37,2013-03-18 07:30:00,
2013-03-18 00:40:00,47.0,20.7,30.14,SE,141,1.0,6.0,35,0.00,CLR,,0.00,WeatherDisplay:10.37,2013-03-18 07:40:00,
2013-03-18 00:50:00,47.0,22.0,30.15,SW,218,5.0,7.0,37,0.00,CLR,,0.00,WeatherDisplay:10.37,2013-03-18 07:50:00,
2013-03-18 01:00:00,50.2,22.2,30.13,SW,225,6.0,9.0,33,0.00,CLR,,0.00,WeatherDisplay:10.37,2013-03-18 08:00:00,
2013-03-18 01:10:00,53.0,22.4,30.11,SW,230,8.0,10.0,30,0.00,CLR,,0.00,WeatherDisplay:10.37,2013-03-18 08:10:00,
2013-03-18 01:20:00,52.0,22.3,30.11,SW,221,7.0,10.0,31,0.00,CLR,,0.00,WeatherDisplay:10.37,2013-03-18 08:20:00,
2013-03-18 01:30:00,50.0,22.0,30.12,SSW,205,0.0,8.0,33,0.00,CLR,,0.00,WeatherDisplay:10.37,2013-03-18 08:30:00,
2013-03-18 01:40:00,49.0,21.8,30.13,SW,235,2.0,6.0,34,0.00,CLR,,0.00,WeatherDisplay:10.37,2013-03-18 08:40:00,
2013-03-18 01:50:00,46.0,21.1,30.13,West,270,1.0,5.0,37,0.00,CLR,,0.00,WeatherDisplay:10.37,2013-03-18 08:50:00,
2013-03-18 02:00:00,45.0,22.1,30.14,NW,310,5.0,8.0,40,0.00,CLR,,0.00,WeatherDisplay:10.37,2013-03-18 09:00:00,
2013-03-18 02:10:00,44.8,21.9,30.15,ENE,58,2.0,8.0,40,0.00,CLR,,0.00,WeatherDisplay:10.37,2013-03-18 09:10:00,
2013-03-18 02:20:00,43.0,20.9,30.15,North,11,5.0,7.0,41,0.00,CLR,,0.00,WeatherDisplay:10.37,2013-03-18 09:20:00,
2013-03-18 02:30:00,43.8,21.6,30.15,NW,315,0.0,6.0,41,0.00,CLR,,0.00,WeatherDisplay:10.37,2013-03-18 09:30:00,
2013-03-18 02:40:00,43.0,21.4,30.15,NW,317,0.0,2.0,42,0.00,CLR,,0.00,WeatherDisplay:10.37,2013-03-18 09:40:00,
2013-03-18 02:50:00,44.0,21.8,30.15,ENE,70,1.0,6.0,41,0.00,CLR,,0.00,WeatherDisplay:10.37,2013-03-18 09:50:00,
2013-03-18 03:00:00,45.0,20.9,30.14,SE,124,2.0,6.0,38,0.00,CLR,,0.00,WeatherDisplay:10.37,2013-03-18 10:00:00,
2013-03-18 03:10:00,46.2,22.0,30.13,SSW,200,6.0,7.0,38,0.00,CLR,,0.00,WeatherDisplay:10.37,2013-03-18 10:10:00,
2013-03-18 03:20:00,53.0,24.6,30.10,SW,230,6.0,9.0,33,0.00,CLR,,0.00,WeatherDisplay:10.37,2013-03-18 10:20:00,
2013-03-18 03:30:00,55.0,24.9,30.08,SW,224,6.0,12.0,31,0.00,CLR,,0.00,WeatherDisplay:10.37,2013-03-18 10:30:00,
2013-03-18 03:40:00,53.0,24.6,30.09,SW,219,6.0,10.0,33,0.00,CLR,,0.00,WeatherDisplay:10.37,2013-03-18 10:40:00,
2013-03-18 03:50:00,54.0,25.5,30.09,SW,226,6.0,9.0,33,0.00,CLR,,0.00,WeatherDisplay:10.37,2013-03-18 10:50:00,
2013-03-18 04:00:00,55.0,24.9,30.08,WSW,239,7.0,12.0,31,0.00,CLR,,0.00,WeatherDisplay:10.37,2013-03-18 11:00:00,
2013-03-18 04:10:00,54.0,24.8,30.08,WSW,237,5.0,10.0,32,0.00,CLR,,0.00,WeatherDisplay:10.37,2013-03-18 11:10:00,
2013-03-18 04:20:00,49.0,20.4,30.09,SSE,156,2.0,7.0,32,0.00,CLR,,0.00,WeatherDisplay:10.37,2013-03-18 11:20:00,
2013-03-18 04:30:00,44.8,20.1,30.14,ESE,120,1.0,7.0,37,0.00,CLR,,0.00,WeatherDisplay:10.37,2013-03-18 11:30:00,
2013-03-18 04:40:00,43.0,19.1,30.15,ESE,112,2.0,6.0,38,0.00,CLR,,0.00,WeatherDisplay:10.37,2013-03-18 11:40:00,
2013-03-18 04:50:00,43.2,21.6,30.15,ESE,112,1.0,3.0,42,0.00,CLR,,0.00,WeatherDisplay:10.37,2013-03-18 11:50:00,
2013-03-18 05:00:00,43.0,20.9,30.15,ESE,112,0.0,2.0,41,0.00,CLR,,0.00,WeatherDisplay:10.37,2013-03-18 12:00:00,
2013-03-18 05:10:00,42.0,20.5,30.16,ESE,112,0.0,1.0,42,0.00,CLR,,0.00,WeatherDisplay:10.37,2013-03-18 12:10:00,
2013-03-18 05:20:00,42.0,21.6,30.16,ESE,112,0.0,3.0,44,0.00,CLR,,0.00,WeatherDisplay:10.37,2013-03-18 12:20:00,
2013-03-18 05:30:00,40.0,20.3,30.17,ESE,112,0.0,2.0,45,0.00,CLR,,0.00,WeatherDisplay:10.37,2013-03-18 12:30:00,
2013-03-18 05:40:00,40.0,20.3,30.18,ESE,112,0.0,2.0,45,0.00,CLR,,0.00,WeatherDisplay:10.37,2013-03-18 12:40:00,
2013-03-18 05:50:00,39.0,19.9,30.18,ESE,112,0.0,0.0,46,0.00,CLR,,0.00,WeatherDisplay:10.37,2013-03-18 12:50:00,
2013-03-18 06:00:00,39.0,21.9,30.18,ENE,70,5.0,6.0,50,0.00,CLR,,0.00,WeatherDisplay:10.37,2013-03-18 13:00:00,
2013-03-18 06:10:00,39.0,22.4,30.19,NE,45,3.0,6.0,51,0.00,CLR,,0.00,WeatherDisplay:10.37,2013-03-18 13:10:00,
2013-03-18 06:20:00,38.0,22.4,30.20,NE,45,0.0,4.0,53,0.00,CLR,,0.00,WeatherDisplay:10.37,2013-03-18 13:20:00,
2013-03-18 06:30:00,38.0,21.5,30.21,South,172,5.0,7.0,51,0.00,CLR,,0.00,WeatherDisplay:10.37,2013-03-18 13:30:00,
2013-03-18 06:40:00,38.0,21.5,30.22,South,186,3.0,7.0,51,0.00,CLR,,0.00,WeatherDisplay:10.37,2013-03-18 13:40:00,
2013-03-18 06:50:00,40.0,24.7,30.22,SSW,212,7.0,8.0,54,0.00,CLR,,0.00,WeatherDisplay:10.37,2013-03-18 13:50:00,
2013-03-18 07:00:00,44.0,25.5,30.19,SW,225,6.0,8.0,48,0.00,CLR,,0.00,WeatherDisplay:10.37,2013-03-18 14:00:00,
2013-03-18 07:10:00,47.0,26.7,30.18,SW,225,5.0,9.0,45,0.00,CLR,,0.00,WeatherDisplay:10.37,2013-03-18 14:10:00,
2013-03-18 07:20:00,49.2,27.1,30.16,SW,229,5.0,7.0,42,0.00,CLR,,0.00,WeatherDisplay:10.37,2013-03-18 14:20:00,
2013-03-18 07:30:00,51.2,27.7,30.15,SW,225,1.0,5.0,40,0.00,CLR,,0.00,WeatherDisplay:10.37,2013-03-18 14:30:00,
2013-03-18 07:40:00,54.0,29.6,30.15,SW,225,0.0,2.0,39,0.00,CLR,,0.00,WeatherDisplay:10.37,2013-03-18 14:40:00,
2013-03-18 07:50:00,56.0,30.7,30.14,SSW,208,2.0,5.0,38,0.00,CLR,,0.00,WeatherDisplay:10.37,2013-03-18 14:50:00,
2013-03-18 08:00:00,57.0,29.6,30.14,SE,135,1.0,5.0,35,0.00,CLR,,0.00,WeatherDisplay:10.37,2013-03-18 15:00:00,
2013-03-18 08:10:00,58.0,29.0,30.13,SSE,161,3.0,6.0,33,0.00,CLR,,0.00,WeatherDisplay:10.37,2013-03-18 15:10:00,
2013-03-18 08:20:00,58.0,29.8,30.14,SSE,166,3.0,7.0,34,0.00,CLR,,0.00,WeatherDisplay:10.37,2013-03-18 15:20:00,
2013-03-18 08:30:00,58.0,29.8,30.14,SSE,151,1.0,7.0,34,0.00,CLR,,0.00,WeatherDisplay:10.37,2013-03-18 15:30:00,
2013-03-18 08:40:00,59.0,30.6,30.14,SSE,155,3.0,6.0,34,0.00,CLR,,0.00,WeatherDisplay:10.37,2013-03-18 15:40:00,
2013-03-18 08:50:00,59.2,30.1,30.14,South,175,5.0,9.0,33,0.00,CLR,,0.00,WeatherDisplay:10.37,2013-03-18 15:50:00,
2013-03-18 09:00:00,61.0,30.9,30.13,South,177,7.0,9.0,32,0.00,CLR,,0.00,WeatherDisplay:10.37,2013-03-18 16:00:00,
2013-03-18 09:10:00,63.0,31.0,30.12,SSE,168,3.0,8.0,30,0.00,CLR,,0.00,WeatherDisplay:10.37,2013-03-18 16:10:00,
2013-03-18 09:20:00,64.0,31.9,30.11,South,172,3.0,9.0,30,0.00,CLR,,0.00,WeatherDisplay:10.37,2013-03-18 16:20:00,
2013-03-18 09:30:00,65.0,31.9,30.11,SSE,154,5.0,8.0,29,0.00,CLR,,0.00,WeatherDisplay:10.37,2013-03-18 16:30:00,
2013-03-18 09:40:00,66.0,32.8,30.11,South,180,5.0,9.0,29,0.00,CLR,,0.00,WeatherDisplay:10.37,2013-03-18 16:40:00,
2013-03-18 09:50:00,68.0,32.7,30.10,SSE,168,5.0,9.0,27,0.00,CLR,,0.00,WeatherDisplay:10.37,2013-03-18 16:50:00,
2013-03-18 10:00:00,67.0,31.9,30.10,SSW,195,5.0,10.0,27,0.00,CLR,,0.00,WeatherDisplay:10.37,2013-03-18 17:00:00,
2013-03-18 10:10:00,67.0,30.0,30.10,SW,217,7.0,10.0,25,0.00,CLR,,0.00,WeatherDisplay:10.37,2013-03-18 17:10:00,
2013-03-18 10:20:00,68.0,30.8,30.10,South,189,5.0,9.0,25,0.00,CLR,,0.00,WeatherDisplay:10.37,2013-03-18 17:20:00,
2013-03-18 10:30:00,69.0,28.5,30.09,South,182,5.0,13.0,22,0.00,CLR,,0.00,WeatherDisplay:10.37,2013-03-18 17:30:00,
2013-03-18 10:40:00,69.0,28.5,30.09,SSW,207,9.0,13.0,22,0.00,CLR,,0.00,WeatherDisplay:10.37,2013-03-18 17:40:00,
2013-03-18 10:50:00,68.2,30.0,30.10,SW,220,6.0,10.0,24,0.00,CLR,,0.00,WeatherDisplay:10.37,2013-03-18 17:50:00,
2013-03-18 11:00:00,69.0,28.5,30.09,South,182,2.0,10.0,22,0.00,CLR,,0.00,WeatherDisplay:10.37,2013-03-18 18:00:00,
2013-03-18 11:10:00,70.0,29.4,30.08,SE,127,5.0,10.0,22,0.00,CLR,,0.00,WeatherDisplay:10.37,2013-03-18 18:10:00,
2013-03-18 11:20:00,71.0,29.1,30.07,South,186,6.0,14.0,21,0.00,CLR,,0.00,WeatherDisplay:10.37,2013-03-18 18:20:00,
2013-03-18 11:30:00,71.0,29.1,30.07,SW,224,1.0,13.0,21,0.00,CLR,,0.00,WeatherDisplay:10.37,2013-03-18 18:30:00,
2013-03-18 11:40:00,71.0,27.9,30.07,SW,216,8.0,15.0,20,0.00,CLR,,0.00,WeatherDisplay:10.37,2013-03-18 18:40:00,
2013-03-18 11:50:00,72.0,28.7,30.06,SW,231,3.0,12.0,20,0.00,CLR,,0.00,WeatherDisplay:10.37,2013-03-18 18:50:00,
2013-03-18 12:00:00,72.8,28.1,30.05,SW,228,8.0,12.0,19,0.00,CLR,,0.00,WeatherDisplay:10.37,2013-03-18 19:00:00,
2013-03-18 12:10:00,72.0,27.5,30.05,SSW,196,5.0,13.0,19,0.00,CLR,,0.00,WeatherDisplay:10.37,2013-03-18 19:10:00,
2013-03-18 12:20:00,73.0,28.3,30.06,South,170,5.0,10.0,19,0.00,CLR,,0.00,WeatherDisplay:10.37,2013-03-18 19:20:00,
2013-03-18 12:30:00,74.0,26.4,30.05,SSE,158,6.0,12.0,17,0.00,CLR,,0.00,WeatherDisplay:10.37,2013-03-18 19:30:00,
2013-03-18 12:40:00,73.0,20.9,30.04,WSW,254,8.0,14.0,14,0.00,CLR,,0.00,WeatherDisplay:10.37,2013-03-18 19:40:00,
2013-03-18 12:50:00,75.0,20.8,30.03,NW,314,2.0,13.0,13,0.00,CLR,,0.00,WeatherDisplay:10.37,2013-03-18 19:50:00,
2013-03-18 13:00:00,74.2,21.9,30.03,SSW,194,5.0,13.0,14,0.00,CLR,,0.00,WeatherDisplay:10.37,2013-03-18 20:00:00,
2013-03-18 13:10:00,74.0,21.7,30.01,South,188,8.0,12.0,14,0.00,CLR,,0.00,WeatherDisplay:10.37,2013-03-18 20:10:00,
2013-03-18 13:20:00,74.2,21.9,30.01,West,259,2.0,9.0,14,0.00,CLR,,0.00,WeatherDisplay:10.37,2013-03-18 20:20:00,
2013-03-18 13:30:00,75.0,22.5,30.01,SSE,168,6.0,14.0,14,0.00,CLR,,0.00,WeatherDisplay:10.37,2013-03-18 20:30:00,
2013-03-18 13:40:00,76.0,21.6,30.00,South,176,5.0,12.0,13,0.00,CLR,,0.00,WeatherDisplay:10.37,2013-03-18 20:40:00,
2013-03-18 13:50:00,75.0,20.8,30.00,WSW,239,7.0,14.0,13,0.00,CLR,,0.00,WeatherDisplay:10.37,2013-03-18 20:50:00,
2013-03-18 14:00:00,75.8,21.4,29.99,WSW,256,9.0,13.0,13,0.00,CLR,,0.00,WeatherDisplay:10.37,2013-03-18 21:00:00,
2013-03-18 14:10:00,75.8,21.4,29.99,SW,233,7.0,12.0,13,0.00,CLR,,0.00,WeatherDisplay:10.37,2013-03-18 21:10:00,
2013-03-18 14:20:00,76.8,18.3,29.99,SW,219,14.0,20.0,11,0.00,CLR,,0.00,WeatherDisplay:10.37,2013-03-18 21:20:00,
2013-03-18 14:30:00,76.0,15.4,29.98,SW,221,9.0,20.0,10,0.00,CLR,,0.00,WeatherDisplay:10.37,2013-03-18 21:30:00,
2013-03-18 14:40:00,76.0,15.4,29.98,SSW,213,12.0,15.0,10,0.00,CLR,,0.00,WeatherDisplay:10.37,2013-03-18 21:40:00,
2013-03-18 14:50:00,76.0,17.6,29.97,WSW,251,10.0,20.0,11,0.00,CLR,,0.00,WeatherDisplay:10.37,2013-03-18 21:50:00,
2013-03-18 15:00:00,77.0,18.4,29.97,SW,214,9.0,16.0,11,0.00,CLR,,0.00,WeatherDisplay:10.37,2013-03-18 22:00:00,
2013-03-18 15:10:00,76.0,17.6,29.96,West,265,10.0,16.0,11,0.00,CLR,,0.00,WeatherDisplay:10.37,2013-03-18 22:10:00,
2013-03-18 15:20:00,76.0,17.6,29.97,West,276,5.0,13.0,11,0.00,CLR,,0.00,WeatherDisplay:10.37,2013-03-18 22:20:00,
2013-03-18 15:30:00,77.0,18.4,29.97,WSW,255,8.0,15.0,11,0.00,CLR,,0.00,WeatherDisplay:10.37,2013-03-18 22:30:00,
2013-03-18 15:40:00,76.0,19.7,29.97,West,274,10.0,20.0,12,0.00,CLR,,0.00,WeatherDisplay:10.37,2013-03-18 22:40:00,
2013-03-18 15:50:00,76.0,19.7,29.98,WNW,282,8.0,16.0,12,0.00,CLR,,0.00,WeatherDisplay:10.37,2013-03-18 22:50:00,
2013-03-18 16:00:00,76.0,19.7,29.98,West,260,6.0,15.0,12,0.00,CLR,,0.00,WeatherDisplay:10.37,2013-03-18 23:00:00,
2013-03-18 16:10:00,76.2,19.8,29.97,West,264,10.0,15.0,12,0.00,CLR,,0.00,WeatherDisplay:10.37,2013-03-18 23:10:00,
2013-03-18 16:20:00,76.8,20.3,29.97,SW,232,7.0,15.0,12,0.00,CLR,,0.00,WeatherDisplay:10.37,2013-03-18 23:20:00,
2013-03-18 16:30:00,76.0,19.7,29.97,West,276,8.0,10.0,12,0.00,CLR,,0.00,WeatherDisplay:10.37,2013-03-18 23:30:00,
2013-03-18 16:40:00,76.0,17.6,29.97,NW,310,8.0,12.0,11,0.00,CLR,,0.00,WeatherDisplay:10.37,2013-03-18 23:40:00,
2013-03-18 16:50:00,75.2,17.0,29.97,WNW,293,10.0,16.0,11,0.00,CLR,,0.00,WeatherDisplay:10.37,2013-03-18 23:50:00,
2013-03-18 17:00:00,75.0,16.9,29.97,West,280,8.0,15.0,11,0.00,CLR,,0.00,WeatherDisplay:10.37,2013-03-19 00:00:00,
2013-03-18 17:10:00,75.0,16.9,29.98,West,269,6.0,15.0,11,0.00,CLR,,0.00,WeatherDisplay:10.37,2013-03-19 00:10:00,
2013-03-18 17:20:00,75.0,16.9,29.98,West,269,8.0,12.0,11,0.00,CLR,,0.00,WeatherDisplay:10.37,2013-03-19 00:20:00,
2013-03-18 17:30:00,74.0,18.1,29.99,WNW,285,9.0,13.0,12,0.00,CLR,,0.00,WeatherDisplay:10.37,2013-03-19 00:30:00,
2013-03-18 17:40:00,73.0,19.2,29.99,WNW,291,10.0,14.0,13,0.00,CLR,,0.00,WeatherDisplay:10.37,2013-03-19 00:40:00,
2013-03-18 17:50:00,72.0,18.4,30.00,WNW,300,9.0,15.0,13,0.00,CLR,,0.00,WeatherDisplay:10.37,2013-03-19 00:50:00,
2013-03-18 18:00:00,71.0,19.4,30.01,NW,308,10.0,15.0,14,0.00,CLR,,0.00,WeatherDisplay:10.37,2013-03-19 01:00:00,
2013-03-18 18:10:00,70.0,20.2,30.01,WNW,293,9.0,12.0,15,0.00,CLR,,0.00,WeatherDisplay:10.37,2013-03-19 01:10:00,
2013-03-18 18:20:00,69.0,20.9,30.02,NW,304,6.0,12.0,16,0.00,CLR,,0.00,WeatherDisplay:10.37,2013-03-19 01:20:00,
2013-03-18 18:30:00,68.0,20.1,30.02,WNW,292,7.0,12.0,16,0.00,CLR,,0.00,WeatherDisplay:10.37,2013-03-19 01:30:00,
2013-03-18 18:40:00,67.0,20.7,30.03,WNW,292,6.0,10.0,17,0.00,CLR,,0.00,WeatherDisplay:10.37,2013-03-19 01:40:00,
2013-03-18 18:50:00,65.0,20.4,30.05,WNW,292,6.0,7.0,18,0.00,CLR,,0.00,WeatherDisplay:10.37,2013-03-19 01:50:00,
2013-03-18 19:00:00,64.0,22.1,30.06,WNW,292,5.0,7.0,20,0.00,CLR,,0.00,WeatherDisplay:10.37,2013-03-19 02:00:00,
2013-03-18 19:10:00,63.0,20.0,30.07,WNW,292,6.0,8.0,19,0.00,CLR,,0.00,WeatherDisplay:10.37,2013-03-19 02:10:00,
2013-03-18 19:20:00,62.0,20.4,30.07,WNW,292,5.0,7.0,20,0.00,CLR,,0.00,WeatherDisplay:10.37,2013-03-19 02:20:00,
2013-03-18 19:30:00,61.0,20.7,30.08,WNW,292,5.0,7.0,21,0.00,CLR,,0.00,WeatherDisplay:10.37,2013-03-19 02:30:00,
2013-03-18 19:40:00,60.0,21.0,30.09,WNW,292,3.0,5.0,22,0.00,CLR,,0.00,WeatherDisplay:10.37,2013-03-19 02:40:00,
2013-03-18 19:50:00,59.0,21.2,30.10,WNW,292,3.0,6.0,23,0.00,CLR,,0.00,WeatherDisplay:10.37,2013-03-19 02:50:00,
2013-03-18 20:00:00,59.0,21.2,30.10,WNW,292,5.0,6.0,23,0.00,CLR,,0.00,WeatherDisplay:10.37,2013-03-19 03:00:00,
2013-03-18 20:10:00,58.0,20.4,30.10,WNW,283,6.0,6.0,23,0.00,CLR,,0.00,WeatherDisplay:10.37,2013-03-19 03:10:00,
2013-03-18 20:20:00,59.0,21.2,30.10,West,263,5.0,6.0,23,0.00,CLR,,0.00,WeatherDisplay:10.37,2013-03-19 03:20:00,
2013-03-18 20:30:00,59.0,21.2,30.11,WSW,247,5.0,6.0,23,0.00,CLR,,0.00,WeatherDisplay:10.37,2013-03-19 03:30:00,
2013-03-18 20:40:00,58.0,20.4,30.11,West,270,5.0,7.0,23,0.00,CLR,,0.00,WeatherDisplay:10.37,2013-03-19 03:40:00,
2013-03-18 20:50:00,59.0,21.2,30.11,West,281,5.0,8.0,23,0.00,CLR,,0.00,WeatherDisplay:10.37,2013-03-19 03:50:00,
2013-03-18 21:00:00,59.0,21.2,30.10,WNW,292,2.0,6.0,23,0.00,CLR,,0.00,WeatherDisplay:10.37,2013-03-19 04:00:00,
2013-03-18 21:10:00,58.0,21.4,30.11,WNW,282,5.0,6.0,24,0.00,CLR,,0.00,WeatherDisplay:10.37,2013-03-19 04:10:00,
2013-03-18 21:20:00,56.0,20.6,30.13,West,270,0.0,5.0,25,0.00,CLR,,0.00,WeatherDisplay:10.37,2013-03-19 04:20:00,
2013-03-18 21:30:00,54.8,20.5,30.13,SSE,164,1.0,4.0,26,0.00,CLR,,0.00,WeatherDisplay:10.37,2013-03-19 04:30:00,
2013-03-18 21:40:00,53.0,19.9,30.15,ESE,112,0.0,4.0,27,0.00,CLR,,0.00,WeatherDisplay:10.37,2013-03-19 04:40:00,
2013-03-18 21:50:00,52.0,19.9,30.15,ESE,112,0.0,0.0,28,0.00,CLR,,0.00,WeatherDisplay:10.37,2013-03-19 04:50:00,
2013-03-18 22:00:00,52.0,20.7,30.15,South,186,1.0,5.0,29,0.00,CLR,,0.00,WeatherDisplay:10.37,2013-03-19 05:00:00,
2013-03-18 22:10:00,52.0,20.7,30.15,SSW,202,2.0,5.0,29,0.00,CLR,,0.00,WeatherDisplay:10.37,2013-03-19 05:10:00,
2013-03-18 22:20:00,50.0,21.3,30.16,NNE,17,6.0,7.0,32,0.00,CLR,,0.00,WeatherDisplay:10.37,2013-03-19 05:20:00,
2013-03-18 22:30:00,49.0,21.1,30.17,NNE,22,3.0,6.0,33,0.00,CLR,,0.00,WeatherDisplay:10.37,2013-03-19 05:30:00,
2013-03-18 22:40:00,48.0,20.2,30.17,NNE,22,0.0,4.0,33,0.00,CLR,,0.00,WeatherDisplay:10.37,2013-03-19 05:40:00,
2013-03-18 22:50:00,48.0,20.2,30.17,NNE,22,0.0,2.0,33,0.00,CLR,,0.00,WeatherDisplay:10.37,2013-03-19 05:50:00,
2013-03-18 23:00:00,48.0,21.6,30.17,NW,323,3.0,5.0,35,0.00,CLR,,0.00,WeatherDisplay:10.37,2013-03-19 06:00:00,
2013-03-18 23:10:00,48.0,20.2,30.17,WNW,292,0.0,6.0,33,0.00,CLR,,0.00,WeatherDisplay:10.37,2013-03-19 06:10:00,
2013-03-18 23:20:00,48.0,20.9,30.17,WNW,292,0.0,0.0,34,0.00,CLR,,0.00,WeatherDisplay:10.37,2013-03-19 06:20:00,
2013-03-18 23:30:00,47.0,21.4,30.17,NNW,332,3.0,6.0,36,0.00,CLR,,0.00,WeatherDisplay:10.37,2013-03-19 06:30:00,
2013-03-18 23:40:00,46.0,21.1,30.18,NNW,337,0.0,5.0,37,0.00,CLR,,0.00,WeatherDisplay:10.37,2013-03-19 06:40:00,
2013-03-18 23:50:00,45.0,20.9,30.18,NNW,337,0.0,2.0,38,0.00,CLR,,0.00,WeatherDisplay:10.37,2013-03-19 06:50:00,